Location: Kerguer�zec
(48.4509°N, 4.7600°W)
Time: 14:01:39
(UTC+00:00)

CZ-2C R/B - Pass Details

Date: 09 April 2020
Orbit: 705 x 907 km, 98.1° (Epoch: 02 June)

Event Time Altitude Azimuth Distance (km) Brightness Sun altitude
Rises 20:12:42 0° 178° (S) 3,151 5.9 -11.8°
Reaches altitude 10° 20:15:03 10° 183° (S) 2,213 5.2 -12.2°
Maximum altitude 20:19:45 52° 260° (W) 887 3.7 -12.9°
Drops below altitude 10° 20:24:24 10° 337° (NNW) 2,187 6.2 -13.5°
Sets 20:26:43 0° 343° (NNW) 3,111 6.9 -13.9°
